TimeCST,TemperatureF,Dew PointF,Humidity,Sea Level PressureIn,VisibilityMPH,Wind Direction,Wind SpeedMPH,Gust SpeedMPH,PrecipitationIn,Events,Conditions,WindDirDegrees,DateUTC
12:53 AM,62.1,53.1,72,30.03,10.0,South,4.6,-,N/A,,Clear,170,2012-11-10 06:53:00
1:53 AM,59.0,53.1,81,30.03,10.0,East,3.5,-,N/A,,Clear,100,2012-11-10 07:53:00
2:53 AM,54.0,52.0,93,30.04,10.0,Calm,Calm,-,N/A,,Clear,0,2012-11-10 08:53:00
3:53 AM,50.0,48.9,96,30.04,8.0,ENE,3.5,-,N/A,,Partly Cloudy,60,2012-11-10 09:53:00
4:46 AM,50.0,48.9,96,30.05,7.0,Calm,Calm,-,N/A,,Mostly Cloudy,0,2012-11-10 10:46:00
4:53 AM,51.1,48.9,92,30.05,8.0,Calm,Calm,-,N/A,,Mostly Cloudy,0,2012-11-10 10:53:00
5:53 AM,55.0,54.0,96,30.06,8.0,East,3.5,-,N/A,,Overcast,90,2012-11-10 11:53:00
6:53 AM,57.9,55.9,93,30.08,7.0,Calm,Calm,-,N/A,,Overcast,0,2012-11-10 12:53:00
7:04 AM,57.9,55.9,93,30.09,7.0,East,3.5,-,N/A,,Overcast,90,2012-11-10 13:04:00
7:53 AM,62.1,59.0,90,30.09,6.0,Variable,3.5,-,N/A,,Overcast,0,2012-11-10 13:53:00
8:53 AM,64.0,59.0,84,30.10,7.0,South,8.1,-,N/A,,Overcast,180,2012-11-10 14:53:00
9:53 AM,64.9,59.0,81,30.08,7.0,Variable,5.8,-,N/A,,Overcast,0,2012-11-10 15:53:00
10:14 AM,66.9,59.0,76,30.09,7.0,Variable,4.6,17.3,N/A,,Overcast,0,2012-11-10 16:14:00
10:53 AM,69.1,59.0,70,30.06,9.0,SSE,5.8,-,N/A,,Mostly Cloudy,150,2012-11-10 16:53:00
11:53 AM,73.9,59.0,59,30.01,10.0,South,12.7,-,N/A,,Mostly Cloudy,180,2012-11-10 17:53:00
12:53 PM,77.0,57.9,52,29.96,10.0,SSE,12.7,18.4,N/A,,Partly Cloudy,150,2012-11-10 18:53:00
1:53 PM,78.1,57.0,48,29.94,10.0,South,10.4,18.4,N/A,,Clear,170,2012-11-10 19:53:00
2:53 PM,78.1,57.0,48,29.92,10.0,SSE,10.4,-,N/A,,Clear,150,2012-11-10 20:53:00
3:53 PM,77.0,55.9,48,29.92,10.0,South,10.4,24.2,N/A,,Partly Cloudy,170,2012-11-10 21:53:00
4:53 PM,75.0,55.9,51,29.92,10.0,SSE,12.7,17.3,N/A,,Mostly Cloudy,160,2012-11-10 22:53:00
5:53 PM,73.0,55.9,55,29.94,10.0,SSE,9.2,-,N/A,,Scattered Clouds,160,2012-11-10 23:53:00
6:53 PM,72.0,55.9,57,29.95,10.0,ESE,5.8,-,N/A,,Mostly Cloudy,120,2012-11-11 00:53:00
7:53 PM,71.1,57.0,61,29.94,10.0,SE,5.8,-,N/A,,Mostly Cloudy,130,2012-11-11 01:53:00
8:53 PM,71.1,55.9,59,29.93,10.0,SE,9.2,-,N/A,,Overcast,130,2012-11-11 02:53:00
10:53 PM,66.9,57.0,70,29.94,10.0,SE,5.8,-,N/A,,Clear,130,2012-11-11 04:53:00
11:53 PM,68.0,57.9,70,29.94,10.0,SE,8.1,-,N/A,,Overcast,140,2012-11-11 05:53:00